Regional Weather Roundup
Issued by NWS

Home | Current Version | Previous Version | Text Only | Print | Product List | Glossary On
Versions: 1 2 3 4 5 6 7 8 9 10 11 12 13 14 15 16 17 18 19 20 21 22 23 24 25 26 27 28 29 30 31 32 33 34 35 36 37 38 39 40 41 42 43 44 45 46 47 48 49 50
000
ASUS45 KABQ 272010
RWRNM
WEATHER ROUNDUP FOR NEW MEXICO
NATIONAL WEATHER SERVICE ALBUQUERQUE NM
200 PM MDT WED AUG 27 2014

NOTE: "FAIR" MEANS FEW OR NO CLOUDS BELOW 12,000 FEET AGL WITH NO
       SIGNIFICANT WEATHER OR OBSTRUCTIONS TO VISION.

      THIS PRODUCT IS RELEASED AS TWO VERSIONS.  ONE VERSION NEAR
      THE TOP OF THE HOUR CONTAINING PRELIMINARY DATA FROM ALBUQUERQUE
      AND OTHER STATIONS.  A FINAL VERSION WITH ADDITIONAL DATA IS
      ISSUED ABOUT 10 MINUTES AFTER THE HOUR.

NMZ501-503-504-510>518-272100-
NORTHWEST PLATEAU/NORTHCENTRAL MOUNTAINS

CITY           SKY/WX    TMP DP  RH WIND       PRES   REMARKS
FARMINGTON     MOSUNNY   73  50  44 SW7       30.28F
LOS ALAMOS     CLOUDY    66  54  63 NE7       30.37S
SANTA FE       MOSUNNY   74  53  48 W8G17     30.30F
ANGEL FIRE     FAIR      65  46  51 W10G18    30.42S

$$
NMZ402-403-502-505>509-272100-
WESTCENTRAL MOUNTAINS/SOUTHWEST MOUNTAINS

CITY           SKY/WX    TMP DP  RH WIND       PRES   REMARKS
GALLUP         MOSUNNY   74  44  34 W10       30.34F
SILVER CITY    MOSUNNY   81  55  41 S9        30.28F

$$
NMZ407-409-411-412-272100-
SOUTHERN DESERTS

CITY           SKY/WX    TMP DP  RH WIND       PRES   REMARKS
LORDSBURG      FAIR      82  55  39 NW7       30.20F
DEMING         MOSUNNY   87  57  35 S10       30.18F
LAS CRUCES     PTSUNNY   80  58  47 CALM      30.22F
HOLLOMAN AFB   PTSUNNY   81  62  53 SE6       30.18F
ALAMOGORDO     MOSUNNY   77  59  53 S3        30.21F
T OR C         MOSUNNY   80  58  46 NE10      30.23F

$$
NMZ519>523-272100-
CENTRAL VALLEYS/CENTRAL HIGHLANDS

CITY           SKY/WX    TMP DP  RH WIND       PRES   REMARKS
ALBUQUERQUE    PTSUNNY   78  51  38 SW10      30.28F
DOUBLE EAGLE     N/A     75  54  46 SW6       30.31F
MORIARTY ARPT  MOCLDY    74  53  47 W5        30.32S
CLINES CORNERS MOSUNNY   73  50  44 W12       30.34F
BELEN          FAIR      77  53  43 SE6       30.26F
SOCORRO        DRIZZLE   75  60  60 S5        30.24F

$$
NMZ524>526-539-540-272100-
SOUTHCENTRAL MOUNTAINS

CITY           SKY/WX    TMP DP  RH WIND       PRES   REMARKS
RUIDOSO        MOSUNNY   70  57  64 NW10G17   30.37F

$$
NMZ527>531-272100-
NORTHEAST HIGHLANDS/NORTHEAST PLAINS

CITY           SKY/WX    TMP DP  RH WIND       PRES   REMARKS
LAS VEGAS      MOSUNNY   76  51  41 S10       30.28F
RATON          SUNNY     78  51  38 S9        30.21F
CLAYTON        MOSUNNY   79  57  46 SW16      30.17F

$$
NMZ532>537-272100-
EASTCENTRAL PLAINS

CITY           SKY/WX    TMP DP  RH WIND       PRES   REMARKS
TUCUMCARI      MOSUNNY   88  55  32 S18       30.13F
CANNON AFB     PTSUNNY   85  57  39 SW16G23   30.17F
CLOVIS AIRPORT   N/A     86  55  35 S13G20    30.19F

$$
NMZ028-029-538-272100-
SOUTHEAST PLAINS

CITY           SKY/WX    TMP DP  RH WIND       PRES   REMARKS
ROSWELL        MOSUNNY   82  61  48 S7        30.15F
CARLSBAD       CLOUDY    81  61  50 NW7       30.13F
HOBBS          PTSUNNY   90  50  25 SE13      30.14F


$$


USA.gov is the U.S. government's official web portal to all federal, state and local government web resources and services.